Time,TemperatureF,DewpointF,PressureIn,WindDirection,WindDirectionDegrees,WindSpeedMPH,WindSpeedGustMPH,Humidity,HourlyPrecipIn,Conditions,Clouds,dailyrainin,SoftwareType,DateUTC
2013-11-02 00:02:00,38.2,37.0,29.43,WSW,239,0.0,0.0,94,0.00,,,0.00,weatherlink.com 1.10,2013-11-02 00:02:00,
2013-11-02 00:17:00,38.2,37.0,29.43,West,267,0.0,1.0,94,0.00,,,0.00,weatherlink.com 1.10,2013-11-02 00:17:00,
2013-11-02 00:32:00,37.7,36.0,29.42,South,188,0.0,1.0,93,0.00,,,0.00,weatherlink.com 1.10,2013-11-02 00:32:00,
2013-11-02 00:47:00,37.4,36.0,29.41,SW,221,0.0,0.0,93,0.00,,,0.00,weatherlink.com 1.10,2013-11-02 00:47:00,
2013-11-02 01:02:00,36.7,35.0,29.40,SW,222,0.0,0.0,94,0.00,,,0.00,weatherlink.com 1.10,2013-11-02 01:02:00,
2013-11-02 01:17:00,36.5,35.0,29.40,SW,222,0.0,0.0,95,0.00,,,0.00,weatherlink.com 1.10,2013-11-02 01:17:00,
2013-11-02 01:32:00,36.7,35.0,29.39,SW,222,0.0,0.0,94,0.00,,,0.00,weatherlink.com 1.10,2013-11-02 01:32:00,
2013-11-02 01:47:00,36.5,35.0,29.38,SW,222,0.0,0.0,94,0.00,,,0.00,weatherlink.com 1.10,2013-11-02 01:47:00,
2013-11-02 02:02:00,36.2,35.0,29.38,SW,222,0.0,0.0,94,0.00,,,0.00,weatherlink.com 1.10,2013-11-02 02:02:00,
2013-11-02 02:17:00,37.2,36.0,29.37,SW,222,0.0,2.0,95,0.00,,,0.00,weatherlink.com 1.10,2013-11-02 02:17:00,
2013-11-02 02:32:00,36.8,35.0,29.36,SW,222,0.0,1.0,94,0.00,,,0.00,weatherlink.com 1.10,2013-11-02 02:32:00,
2013-11-02 02:47:00,37.8,36.0,29.35,NW,305,0.0,2.0,94,0.00,,,0.00,weatherlink.com 1.10,2013-11-02 02:47:00,
2013-11-02 03:02:00,38.4,37.0,29.34,SE,143,0.0,1.0,93,0.00,,,0.00,weatherlink.com 1.10,2013-11-02 03:02:00,
2013-11-02 03:17:00,38.9,37.0,29.34,ESE,103,0.0,2.0,93,0.00,,,0.00,weatherlink.com 1.10,2013-11-02 03:17:00,
2013-11-02 03:32:00,38.4,36.0,29.33,WSW,252,0.0,1.0,92,0.00,,,0.00,weatherlink.com 1.10,2013-11-02 03:32:00,
2013-11-02 03:47:00,41.9,39.0,29.31,West,259,2.0,4.0,90,0.00,,,0.00,weatherlink.com 1.10,2013-11-02 03:47:00,
2013-11-02 04:03:00,44.3,40.0,29.30,East,96,4.0,11.0,84,0.00,,,0.00,weatherlink.com 1.10,2013-11-02 04:03:00,
2013-11-02 04:18:00,44.2,39.0,29.29,WSW,255,1.0,2.0,81,0.00,,,0.00,weatherlink.com 1.10,2013-11-02 04:18:00,
2013-11-02 04:33:00,43.3,39.0,29.28,West,263,1.0,2.0,83,0.00,,,0.00,weatherlink.com 1.10,2013-11-02 04:33:00,
2013-11-02 04:48:00,43.6,38.0,29.27,East,93,0.0,5.0,82,0.00,,,0.00,weatherlink.com 1.10,2013-11-02 04:48:00,
2013-11-02 05:03:00,43.7,39.0,29.25,ESE,123,2.0,5.0,82,0.00,,,0.00,weatherlink.com 1.10,2013-11-02 05:03:00,
2013-11-02 05:18:00,42.8,38.0,29.23,SE,139,1.0,3.0,84,0.00,,,0.00,weatherlink.com 1.10,2013-11-02 05:18:00,
2013-11-02 05:33:00,43.0,39.0,29.21,SE,143,1.0,5.0,84,0.00,,,0.00,weatherlink.com 1.10,2013-11-02 05:33:00,
2013-11-02 05:48:00,44.4,41.0,29.18,ESE,105,7.0,8.0,86,0.00,,,0.00,weatherlink.com 1.10,2013-11-02 05:48:00,
2013-11-02 06:03:00,45.3,41.0,29.18,SE,146,1.0,4.0,84,0.00,,,0.00,weatherlink.com 1.10,2013-11-02 06:03:00,
2013-11-02 06:18:00,45.6,41.0,29.16,SSE,150,2.0,9.0,85,0.00,,,0.00,weatherlink.com 1.10,2013-11-02 06:18:00,
2013-11-02 06:33:00,46.7,43.0,29.12,SE,129,1.0,13.0,86,0.00,,,0.00,weatherlink.com 1.10,2013-11-02 06:33:00,
2013-11-02 06:48:00,47.6,44.0,29.09,West,264,4.0,15.0,86,0.02,,,0.02,weatherlink.com 1.10,2013-11-02 06:48:00,
2013-11-02 07:03:00,47.9,44.0,29.06,SW,236,11.0,20.0,86,0.05,,,0.05,weatherlink.com 1.10,2013-11-02 07:03:00,
2013-11-02 07:18:00,48.2,44.0,29.04,ESE,104,7.0,27.0,84,0.05,,,0.05,weatherlink.com 1.10,2013-11-02 07:18:00,
2013-11-02 07:33:00,48.5,44.0,29.04,SSE,162,7.0,16.0,84,0.06,,,0.06,weatherlink.com 1.10,2013-11-02 07:33:00,
2013-11-02 07:48:00,48.8,44.0,29.03,SSW,193,7.0,28.0,82,0.04,,,0.06,weatherlink.com 1.10,2013-11-02 07:48:00,
2013-11-02 08:03:00,48.7,44.0,29.03,WSW,246,11.0,20.0,85,0.02,,,0.06,weatherlink.com 1.10,2013-11-02 08:03:00,
2013-11-02 08:18:00,48.7,45.0,29.03,SE,130,13.0,20.0,87,0.02,,,0.07,weatherlink.com 1.10,2013-11-02 08:18:00,
2013-11-02 08:33:00,49.0,44.0,29.02,SW,226,9.0,16.0,84,0.02,,,0.08,weatherlink.com 1.10,2013-11-02 08:33:00,
2013-11-02 08:48:00,49.9,43.0,29.00,SW,236,2.0,13.0,78,0.02,,,0.09,weatherlink.com 1.10,2013-11-02 08:48:00,
2013-11-02 09:03:00,50.7,43.0,28.98,West,262,5.0,16.0,76,0.02,,,0.09,weatherlink.com 1.10,2013-11-02 09:03:00,
2013-11-02 09:19:00,51.4,44.0,28.97,South,186,6.0,20.0,76,0.02,,,0.09,weatherlink.com 1.10,2013-11-02 09:19:00,
2013-11-02 09:34:00,52.2,44.0,28.95,West,269,7.0,26.0,73,0.02,,,0.10,weatherlink.com 1.10,2013-11-02 09:34:00,
2013-11-02 09:49:00,52.1,43.0,28.94,SW,227,15.0,23.0,72,0.05,,,0.13,weatherlink.com 1.10,2013-11-02 09:49:00,
2013-11-02 10:04:00,51.9,43.0,28.92,WSW,252,8.0,20.0,72,0.05,,,0.13,weatherlink.com 1.10,2013-11-02 10:04:00,
2013-11-02 10:19:00,51.4,43.0,28.91,WSW,246,5.0,22.0,74,0.05,,,0.13,weatherlink.com 1.10,2013-11-02 10:19:00,
2013-11-02 10:34:00,50.9,44.0,28.89,West,266,8.0,15.0,76,0.04,,,0.14,weatherlink.com 1.10,2013-11-02 10:34:00,
2013-11-02 10:49:00,51.5,44.0,28.86,SSW,207,2.0,18.0,75,0.01,,,0.14,weatherlink.com 1.10,2013-11-02 10:49:00,
2013-11-02 11:04:00,51.4,44.0,28.84,WSW,252,4.0,12.0,76,0.01,,,0.14,weatherlink.com 1.10,2013-11-02 11:04:00,
2013-11-02 11:19:00,50.7,45.0,28.82,WNW,284,12.0,28.0,81,0.04,,,0.17,weatherlink.com 1.10,2013-11-02 11:19:00,
2013-11-02 11:34:00,50.7,45.0,28.82,SW,236,13.0,29.0,80,0.05,,,0.19,weatherlink.com 1.10,2013-11-02 11:34:00,
2013-11-02 11:49:00,50.8,44.0,28.83,West,279,4.0,23.0,77,0.05,,,0.19,weatherlink.com 1.10,2013-11-02 11:49:00,
2013-11-02 12:04:00,50.9,43.0,28.83,WSW,240,6.0,19.0,74,0.06,,,0.20,weatherlink.com 1.10,2013-11-02 12:04:00,
2013-11-02 12:19:00,51.1,43.0,28.83,WNW,294,6.0,20.0,74,0.02,,,0.20,weatherlink.com 1.10,2013-11-02 12:19:00,
2013-11-02 12:34:00,51.2,43.0,28.82,WSW,255,4.0,20.0,73,0.02,,,0.20,weatherlink.com 1.10,2013-11-02 12:34:00,
2013-11-02 12:49:00,50.0,43.0,28.81,WSW,239,10.0,21.0,77,0.02,,,0.20,weatherlink.com 1.10,2013-11-02 12:49:00,
2013-11-02 13:04:00,49.4,43.0,28.81,WSW,256,14.0,19.0,79,0.01,,,0.20,weatherlink.com 1.10,2013-11-02 13:04:00,
2013-11-02 13:19:00,48.2,44.0,28.81,West,259,12.0,19.0,84,0.03,,,0.23,weatherlink.com 1.10,2013-11-02 13:19:00,
2013-11-02 13:34:00,48.1,43.0,28.82,SSW,208,7.0,22.0,83,0.03,,,0.24,weatherlink.com 1.10,2013-11-02 13:34:00,
2013-11-02 13:49:00,49.4,44.0,28.82,East,84,5.0,19.0,80,0.03,,,0.24,weatherlink.com 1.10,2013-11-02 13:49:00,
2013-11-02 14:04:00,49.3,43.0,28.82,West,266,6.0,21.0,78,0.03,,,0.24,weatherlink.com 1.10,2013-11-02 14:04:00,
2013-11-02 14:19:00,48.9,43.0,28.82,WSW,248,4.0,16.0,80,0.01,,,0.24,weatherlink.com 1.10,2013-11-02 14:19:00,
2013-11-02 14:34:00,48.8,43.0,28.82,WSW,245,7.0,20.0,79,0.00,,,0.24,weatherlink.com 1.10,2013-11-02 14:34:00,
2013-11-02 14:49:00,48.8,43.0,28.82,West,264,5.0,21.0,79,0.00,,,0.24,weatherlink.com 1.10,2013-11-02 14:49:00,
2013-11-02 15:04:00,48.5,43.0,28.83,WNW,287,10.0,18.0,80,0.00,,,0.24,weatherlink.com 1.10,2013-11-02 15:04:00,
2013-11-02 15:19:00,47.7,43.0,28.85,WSW,252,6.0,22.0,83,0.01,,,0.24,weatherlink.com 1.10,2013-11-02 15:19:00,
2013-11-02 15:34:00,46.1,42.0,28.86,West,259,12.0,24.0,85,0.02,,,0.26,weatherlink.com 1.10,2013-11-02 15:34:00,
2013-11-02 15:49:00,46.0,42.0,28.87,West,259,16.0,19.0,87,0.02,,,0.26,weatherlink.com 1.10,2013-11-02 15:49:00,
2013-11-02 16:04:00,46.1,43.0,28.88,West,273,10.0,21.0,88,0.02,,,0.26,weatherlink.com 1.10,2013-11-02 16:04:00,
2013-11-02 16:19:00,46.2,43.0,28.90,NNW,329,9.0,20.0,87,0.01,,,0.26,weatherlink.com 1.10,2013-11-02 16:19:00,
2013-11-02 16:34:00,46.0,42.0,28.92,WSW,255,13.0,20.0,86,0.00,,,0.26,weatherlink.com 1.10,2013-11-02 16:34:00,
2013-11-02 16:49:00,45.9,42.0,28.94,WSW,238,8.0,25.0,85,0.01,,,0.27,weatherlink.com 1.10,2013-11-02 16:49:00,
2013-11-02 17:04:00,45.8,42.0,28.96,SW,233,5.0,20.0,86,0.01,,,0.27,weatherlink.com 1.10,2013-11-02 17:04:00,
2013-11-02 17:19:00,45.3,41.0,28.98,WSW,257,8.0,23.0,86,0.02,,,0.28,weatherlink.com 1.10,2013-11-02 17:19:00,
2013-11-02 17:34:00,45.3,41.0,28.99,WNW,283,8.0,23.0,84,0.02,,,0.28,weatherlink.com 1.10,2013-11-02 17:34:00,
2013-11-02 17:49:00,45.4,41.0,29.01,WSW,248,5.0,19.0,83,0.01,,,0.28,weatherlink.com 1.10,2013-11-02 17:49:00,
2013-11-02 18:04:00,45.5,41.0,29.03,WSW,239,9.0,19.0,84,0.00,,,0.28,weatherlink.com 1.10,2013-11-02 18:04:00,
2013-11-02 18:19:00,45.5,41.0,29.04,NW,322,5.0,19.0,85,0.01,,,0.28,weatherlink.com 1.10,2013-11-02 18:19:00,
2013-11-02 18:34:00,45.7,42.0,29.06,WSW,252,10.0,21.0,85,0.01,,,0.28,weatherlink.com 1.10,2013-11-02 18:34:00,
2013-11-02 18:49:00,45.7,41.0,29.07,SW,231,6.0,26.0,84,0.01,,,0.28,weatherlink.com 1.10,2013-11-02 18:49:00,
2013-11-02 19:04:00,45.6,41.0,29.09,WNW,287,7.0,21.0,84,0.01,,,0.28,weatherlink.com 1.10,2013-11-02 19:04:00,
2013-11-02 19:19:00,45.4,40.0,29.10,WNW,288,9.0,23.0,82,0.01,,,0.29,weatherlink.com 1.10,2013-11-02 19:19:00,
2013-11-02 19:34:00,45.3,41.0,29.11,ESE,122,12.0,21.0,84,0.01,,,0.29,weatherlink.com 1.10,2013-11-02 19:34:00,
2013-11-02 19:49:00,45.5,40.0,29.13,NW,309,6.0,23.0,82,0.02,,,0.30,weatherlink.com 1.10,2013-11-02 19:49:00,
2013-11-02 20:04:00,45.1,40.0,29.14,SW,231,7.0,22.0,82,0.02,,,0.30,weatherlink.com 1.10,2013-11-02 20:04:00,
2013-11-02 20:19:00,45.0,40.0,29.14,WSW,250,15.0,22.0,82,0.01,,,0.30,weatherlink.com 1.10,2013-11-02 20:19:00,
2013-11-02 20:34:00,44.9,40.0,29.15,SW,231,7.0,22.0,82,0.01,,,0.30,weatherlink.com 1.10,2013-11-02 20:34:00,
2013-11-02 20:49:00,44.7,40.0,29.16,SW,224,15.0,22.0,82,0.00,,,0.30,weatherlink.com 1.10,2013-11-02 20:49:00,
2013-11-02 21:04:00,44.4,39.0,29.16,WSW,252,8.0,21.0,82,0.00,,,0.30,weatherlink.com 1.10,2013-11-02 21:04:00,
2013-11-02 21:19:00,44.0,39.0,29.18,WSW,249,4.0,14.0,82,0.00,,,0.30,weatherlink.com 1.10,2013-11-02 21:19:00,
2013-11-02 21:34:00,43.8,38.0,29.19,WNW,293,7.0,14.0,81,0.00,,,0.30,weatherlink.com 1.10,2013-11-02 21:34:00,
2013-11-02 21:49:00,43.6,38.0,29.21,West,260,7.0,15.0,82,0.00,,,0.30,weatherlink.com 1.10,2013-11-02 21:49:00,
2013-11-02 22:04:00,43.7,38.0,29.21,WNW,287,3.0,12.0,81,0.00,,,0.30,weatherlink.com 1.10,2013-11-02 22:04:00,
2013-11-02 22:19:00,43.8,38.0,29.21,WSW,239,10.0,17.0,80,0.00,,,0.30,weatherlink.com 1.10,2013-11-02 22:19:00,
2013-11-02 22:34:00,43.7,38.0,29.21,NW,323,4.0,21.0,80,0.00,,,0.30,weatherlink.com 1.10,2013-11-02 22:34:00,
2013-11-02 22:49:00,43.6,38.0,29.21,West,266,9.0,17.0,80,0.00,,,0.30,weatherlink.com 1.10,2013-11-02 22:49:00,
2013-11-02 23:04:00,43.5,38.0,29.22,WSW,239,8.0,14.0,81,0.00,,,0.30,weatherlink.com 1.10,2013-11-02 23:04:00,
2013-11-02 23:19:00,43.3,38.0,29.23,WNW,285,2.0,16.0,81,0.00,,,0.30,weatherlink.com 1.10,2013-11-02 23:19:00,
2013-11-02 23:34:00,43.2,37.0,29.23,SW,233,4.0,15.0,80,0.00,,,0.30,weatherlink.com 1.10,2013-11-02 23:34:00,
2013-11-02 23:49:00,43.3,37.0,29.23,West,278,13.0,14.0,79,0.00,,,0.30,weatherlink.com 1.10,2013-11-02 23:49:00,